Flag for Germany Weather past 2 weeks in Greven, North Rhine-Westphalia, Germany

Now
55 °F

Sleet. Overcast.


Feels Like: 55 °F
Forecast: 63 / 90 °F
Wind: 3 mph from Southeast

Location: Muenster / Osnabrueck

Current Time: Aug 5, 2015 at 3:08:34 AM

Latest Report: Aug 5, 2015 at 2:20 AM


Visibility: 2 mi

Pressure: 30.07 "Hg

Humidity: 100%

Dew point: 55 °F

Location of GrevenLocation

Historic Weather in Greven — Graph

°F

Greven temperature yesterday

Maximum temperature yesterday: 79 °F (at 10:50 AM)
Minimum temperature yesterday: 59 °F (at 11:50 PM)
Average temperature yesterday: 67 °F

Past Weeks' High & Low Weather Summary

 TemperatureHumidityPressure
High90 °F (Aug 3, 4:20 PM)100% (Jul 21, 1:20 AM)30.15 "Hg (Jul 21, 1:20 AM)
Low45 °F (Jul 31, 5:50 AM)26% (Aug 3, 5:20 PM)29.47 "Hg (Jul 25, 7:20 AM)
Average64 °F69%29.88 "Hg
* Reported Jul 21 1:20 AM — Aug 5 1:50 AM, Greven, Weather by CustomWeather, © 2015

Note: Actual official high and low records may vary slightly from our data, if they occured in-between our weather recording intervals... More about our weather records

Advertising

Greven weather history for previous 24 hours

 ConditionsComfort  
Time TempWeatherWind HumidityBarometerVisibility
1:50 AM
Wed, Aug 5
55 °FSleet. Overcast.3 mph100%30.07 "Hg2 mi
1:20 AM55 °FFog.3 mph100%30.07 "Hg3 mi
12:50 AM57 °FFog.3 mph100%30.07 "Hg4 mi
12:20 AM59 °FPassing clouds.3 mph94%30.07 "HgN/A
11:50 PM
Tue, Aug 4
59 °FPassing clouds.6 mph94%30.04 "HgN/A
11:20 PM61 °FPassing clouds.7 mph94%30.04 "HgN/A
10:50 PM61 °FPassing clouds.7 mph94%30.04 "HgN/A
10:20 PM61 °FPassing clouds.5 mph94%30.04 "HgN/A
9:50 PM61 °FPassing clouds.6 mph100%30.04 "HgN/A
9:20 PM63 °FPassing clouds.6 mph94%30.04 "HgN/A
8:50 PM63 °FSunny.6 mph94%30.01 "Hg10 mi
8:20 PM63 °FPassing clouds.5 mph94%30.01 "HgN/A
7:50 PM63 °FPartly sunny.6 mph88%30.01 "HgN/A
7:20 PM63 °FPartly sunny.9 mph94%30.01 "HgN/A
6:50 PM63 °FLight rain. Broken clouds.7 mph94%29.98 "HgN/A
6:20 PM63 °FDrizzle. Partly sunny.12 mph100%29.98 "HgN/A
5:50 PM63 °FDrizzle. Partly sunny.16 mph94%29.98 "Hg6 mi
5:20 PM64 °FDrizzle. Partly sunny.21 mph94%29.95 "Hg4 mi
4:50 PM68 °FDrizzle. Broken clouds.7 mph94%29.95 "Hg4 mi
4:20 PM66 °FDrizzle. Broken clouds.6 mph100%29.92 "Hg2 mi
3:50 PM66 °FLight rain. Broken clouds.5 mph100%29.92 "HgN/A
3:20 PM66 °FLight rain. Broken clouds.5 mph94%29.92 "HgN/A
2:50 PM66 °FLight rain. Broken clouds.5 mph94%29.92 "HgN/A
2:20 PM66 °FLight rain. Broken clouds.5 mph94%29.92 "HgN/A
1:50 PM66 °FLight rain. Broken clouds.5 mph88%29.92 "HgN/A
1:20 PM68 °FRain. Broken clouds.10 mph83%29.92 "HgN/A
12:50 PM73 °FLight rain. Partly sunny.15 mph65%29.92 "HgN/A
12:20 PM77 °FSunny.14 mph51%29.89 "Hg10 mi
11:50 AM79 °FSunny.9 mph48%29.86 "Hg10 mi
11:20 AM79 °FPassing clouds.8 mph48%29.86 "HgN/A
10:50 AM79 °FSunny.2 mph51%29.83 "Hg10 mi
10:20 AM77 °FPassing clouds.3 mph54%29.83 "HgN/A
9:50 AM75 °FPassing clouds.5 mph61%29.86 "HgN/A
9:20 AM72 °FPartly sunny.2 mph65%29.86 "HgN/A
8:50 AM70 °FPartly sunny.5 mph69%29.86 "HgN/A
8:20 AM70 °FPartly sunny.7 mph69%29.86 "HgN/A
7:50 AM70 °FBroken clouds.5 mph64%29.83 "HgN/A
7:20 AM70 °FBroken clouds.7 mph60%29.83 "HgN/A
6:50 AM68 °FPassing clouds.5 mph64%29.83 "HgN/A
6:20 AM68 °FPassing clouds.6 mph64%29.83 "HgN/A
5:50 AM68 °FPassing clouds.7 mph64%29.83 "HgN/A
5:20 AM68 °FPassing clouds.6 mph64%29.83 "HgN/A
4:50 AM68 °FPassing clouds.5 mph69%29.83 "HgN/A
4:20 AM66 °FClear.2 mph73%29.86 "Hg10 mi
3:50 AM66 °FClear.2 mph73%29.86 "Hg10 mi
3:20 AM64 °FClear.2 mph83%29.86 "Hg10 mi
Weather by CustomWeather, © 2015

See weather overviewHow to use our weather pages